Location: Berlise
(49.6641°N, 4.1077°E)
Time: 18:52:29
(UTC+00:00)

FALCON 9 DEB - Pass Details

Date: 27 January 2021
Orbit: 372 x 387 km, 53.0° (Epoch: 26 February)

Event Time Altitude Azimuth Distance (km) Brightness Sun altitude
Exits shadow 06:15:30 - 239° (WSW) 1,462 5.4 -10.9°
Reaches altitude 10° 06:15:41 10° 238° (WSW) 1,386 5.3 -10.9°
Maximum altitude 06:18:46 72° 154° (SSE) 398 3.0 -10.4°
Drops below altitude 10° 06:21:50 10° 69° (ENE) 1,384 6.5 -9.9°
Sets 06:23:53 0° 68° (ENE) 2,235 7.6 -9.6°
